Theta_e
324 322 322 324 322 319 321 319 315 317 323 320 312 311 313 312 311 312 311 312 315 319 323 327 327 328 328 329 329 329 332 334 336 342 347 348 348 350 353 355 357 357 358 360 362 361 361 361 362 362 362 363 363 363 364 365 365 366 365 364 362 361 361
323 323 323 324 324 324 320 315 316 321 323 321 316 312 312 312 311 311 309 310 312 311 315 324 327 326 326 328 328 328 331 333 336 341 346 349 349 350 353 355 357 357 357 359 361 361 360 361 361 361 362 363 363 363 363 365 365 366 365 364 363 361 362
322 325 323 321 323 325 322 319 322 321 315 314 315 313 313 312 311 311 309 309 310 309 313 322 328 327 326 328 328 328 329 331 335 339 344 347 348 349 352 354 356 357 357 358 361 361 359 360 361 362 362 362 362 362 362 364 365 365 365 364 364 362 362
323 324 321 316 318 323 324 323 324 322 317 315 315 315 313 312 312 312 310 309 310 314 320 323 327 330 330 329 329 330 329 329 332 337 340 344 347 349 351 353 355 356 355 357 360 360 359 360 360 361 361 360 360 361 361 363 364 364 365 364 364 364 363
321 319 320 319 319 320 320 318 318 318 319 319 318 316 313 312 312 312 312 310 310 318 327 327 327 331 330 330 331 331 331 329 331 335 338 341 347 350 351 352 353 354 355 355 358 359 358 358 359 359 360 359 359 360 361 362 363 363 363 364 364 364 364
315 318 324 324 324 324 322 319 317 317 318 316 315 315 315 312 311 311 312 310 311 321 329 327 327 328 328 329 330 330 333 332 331 334 337 342 348 350 351 351 352 353 354 354 356 358 357 357 358 358 358 358 358 359 360 360 361 362 362 363 364 364 364
319 323 325 324 324 326 325 322 322 323 321 315 312 312 314 313 311 311 311 309 314 325 329 327 327 328 327 327 328 329 331 332 334 334 336 343 350 352 350 348 349 351 353 354 356 357 358 357 357 357 357 357 358 358 358 358 359 359 360 361 363 364 364
322 323 325 326 325 325 323 322 324 324 322 319 317 316 316 315 312 311 311 310 315 326 331 329 328 328 327 327 328 328 329 331 333 335 339 346 351 352 350 347 347 348 349 353 355 356 359 358 357 357 356 356 357 357 357 357 358 358 359 360 362 363 364
319 319 320 320 322 323 322 323 325 324 323 324 322 319 318 315 312 312 312 309 314 326 332 330 329 329 328 328 328 328 330 331 331 335 344 350 352 353 351 347 348 347 348 354 358 359 360 359 357 357 357 356 356 356 356 356 356 357 358 359 360 363 363
316 316 316 316 318 320 321 323 325 324 324 323 320 316 313 314 315 315 312 310 316 326 332 330 328 329 328 329 330 328 329 334 336 341 346 347 353 356 354 351 351 349 351 355 358 360 361 359 357 357 357 356 356 355 355 355 356 357 358 358 359 361 363
320 320 322 324 323 319 316 319 322 323 324 324 321 315 312 315 317 314 315 316 317 322 330 330 328 329 329 330 330 329 333 338 341 346 350 348 353 357 355 354 354 354 354 356 359 361 360 357 357 357 357 356 355 355 355 355 355 356 357 358 359 360 362
324 324 325 325 324 321 318 317 319 321 324 324 320 314 315 320 316 312 320 324 318 320 328 329 328 330 330 329 329 330 336 338 336 343 350 347 349 353 355 355 357 358 359 358 359 360 359 357 356 356 355 355 354 355 356 354 354 355 357 358 359 359 361
321 321 322 322 324 324 323 322 321 321 323 322 319 317 320 323 317 314 323 326 322 325 329 328 328 330 329 329 330 329 331 333 333 338 342 338 338 347 354 357 359 360 361 363 362 360 357 356 355 355 354 355 355 355 356 355 354 354 356 358 359 359 362
320 320 321 322 322 323 323 324 324 324 324 323 322 322 323 323 320 321 327 328 327 329 329 328 328 329 328 328 329 328 329 329 330 333 335 334 331 335 347 355 359 359 359 361 363 362 360 357 355 355 354 355 355 355 356 355 354 354 355 357 359 360 362
319 319 320 321 321 322 321 322 323 324 323 324 323 324 325 324 323 325 326 325 326 330 331 330 329 329 329 330 329 330 330 329 329 330 330 332 331 330 336 348 357 359 357 358 361 362 361 359 358 355 355 355 354 354 355 355 355 354 354 358 360 361 362
318 318 319 319 320 320 318 318 321 322 321 322 322 324 325 323 323 324 322 321 324 329 330 330 330 330 330 331 330 329 329 329 329 329 330 330 333 332 331 341 356 360 358 358 360 359 358 359 359 356 355 356 355 354 355 355 355 354 353 357 362 363 363
317 318 318 317 318 318 317 318 321 322 323 323 323 324 326 326 324 323 320 321 327 331 330 329 331 330 329 330 329 329 331 331 330 331 331 329 330 331 329 338 353 356 352 353 356 356 355 356 357 356 355 355 355 355 354 355 355 354 354 358 363 364 364
318 317 317 318 317 317 319 322 324 324 324 323 322 323 324 325 325 325 325 327 329 330 329 329 329 330 330 330 329 329 331 332 333 332 332 331 332 332 332 339 347 351 352 354 354 355 355 354 353 355 354 353 355 355 354 354 355 355 355 358 362 364 364
317 317 318 319 318 318 321 325 328 327 326 326 327 327 327 326 326 326 326 327 328 329 329 329 329 330 330 329 330 330 331 333 335 334 334 334 333 333 338 345 351 356 360 361 358 357 355 353 352 355 355 353 353 354 355 356 357 357 358 359 362 364 364
318 318 318 319 320 320 322 325 328 329 331 332 329 326 327 327 326 327 329 328 327 328 327 327 327 328 328 328 331 334 334 334 336 334 331 330 333 339 347 356 362 365 366 364 363 362 359 354 352 352 354 354 352 353 357 358 358 359 360 361 362 363 364
318 318 317 318 319 319 320 325 331 333 334 336 333 327 327 332 334 337 339 337 333 330 328 328 329 330 330 332 333 334 334 335 338 335 332 337 347 353 356 360 364 366 366 366 367 366 361 356 352 351 353 354 352 354 358 359 360 360 360 361 363 363 364
316 317 317 318 318 318 320 325 333 335 332 336 338 331 330 340 343 341 342 342 339 339 339 339 340 337 334 333 333 330 329 334 339 340 341 346 352 354 357 359 361 364 366 366 366 364 360 356 352 351 353 353 353 355 357 359 360 360 360 361 362 363 363
314 315 317 318 317 319 324 329 333 333 330 335 336 325 325 339 345 340 343 345 344 347 348 349 349 343 335 331 332 333 333 334 342 347 349 352 354 356 359 360 360 364 366 365 363 360 358 356 355 353 353 353 354 356 359 359 360 359 359 359 360 361 362
314 314 315 316 316 318 326 331 331 329 328 335 333 321 323 339 344 340 343 345 345 348 349 350 352 346 338 335 343 349 349 348 352 355 357 357 356 357 360 359 359 362 364 364 364 363 363 363 361 357 356 355 356 359 360 359 358 357 358 359 360 360 361
313 314 314 315 316 318 321 325 328 329 328 328 325 323 329 340 341 341 343 342 343 346 347 349 352 350 344 343 347 350 351 353 355 355 355 356 356 356 357 357 359 361 362 363 365 365 364 363 361 358 358 356 357 360 361 359 358 357 357 359 361 361 362
313 313 314 314 315 316 318 318 321 324 323 321 325 332 338 340 339 342 344 342 343 345 345 347 349 348 347 346 346 348 351 354 356 354 353 354 356 356 355 355 358 361 362 362 363 362 362 362 359 359 359 357 359 361 362 360 358 357 359 362 362 363 363
314 314 314 314 314 317 321 322 322 321 322 325 333 338 338 337 338 340 342 343 343 343 343 344 345 345 347 346 347 349 352 353 354 352 352 353 353 353 355 355 357 359 359 360 361 360 360 363 362 360 360 361 363 364 364 365 363 361 362 364 364 364 364
315 314 314 316 319 322 325 326 327 328 328 332 337 336 334 336 339 338 341 344 342 340 341 343 343 345 347 347 347 349 350 351 351 351 350 351 351 351 353 353 355 356 357 358 358 357 359 362 365 364 364 366 367 366 366 366 366 365 364 363 364 364 364
318 317 317 319 321 322 322 324 328 331 332 332 334 334 334 336 338 338 341 342 341 339 340 342 342 344 345 345 345 346 347 348 350 350 349 350 351 352 352 352 353 354 355 356 356 356 356 358 360 363 364 364 364 363 361 362 364 366 366 364 363 363 362
318 318 318 318 319 320 321 323 325 327 329 330 331 333 335 337 337 338 339 339 338 339 340 341 344 344 344 344 345 346 346 348 348 349 349 350 350 352 352 352 352 353 354 354 355 356 355 355 356 357 358 359 360 359 358 360 362 364 366 366 365 364 364
316 317 318 318 319 319 320 322 322 323 327 329 330 333 336 336 336 337 337 337 337 337 338 341 343 344 344 345 346 347 348 348 348 349 349 349 350 351 351 351 352 353 354 354 354 354 353 353 354 354 354 355 356 356 358 359 361 363 365 366 366 365 365
315 316 317 316 317 318 318 319 319 321 325 329 331 332 334 335 335 335 335 335 336 337 338 339 341 343 344 345 347 347 347 348 348 348 348 349 350 351 351 350 351 353 353 353 353 352 351 351 351 351 351 352 352 353 355 356 358 360 362 364 365 365 365
314 314 315 316 317 317 316 317 319 321 325 329 332 332 333 335 336 336 335 335 334 335 335 336 338 340 341 343 345 345 345 346 347 347 347 348 349 350 349 349 349 350 351 351 350 350 349 349 348 348 349 349 349 350 351 352 354 356 358 360 361 361 361
313 313 315 317 318 319 319 320 323 325 324 325 327 331 334 336 337 337 336 336 334 334 334 334 336 337 338 340 343 344 345 345 346 346 346 347 348 349 348 347 348 348 348 348 348 348 348 348 347 347 347 347 348 348 349 351 352 352 352 354 354 354 355
313 314 315 317 318 318 319 320 321 321 321 321 323 325 328 332 336 337 337 337 336 334 334 333 334 335 336 338 341 342 343 343 344 345 346 346 347 348 348 347 348 348 347 347 348 348 348 348 347 348 347 346 346 347 347 348 349 349 349 349 350 350 350
314 314 314 315 315 316 316 317 318 319 320 321 321 320 321 327 333 336 336 336 335 334 334 334 335 336 336 336 337 339 340 341 342 344 345 346 346 347 347 347 347 347 347 347 347 347 348 348 348 348 347 346 346 346 346 346 346 347 347 347 347 347 346
314 313 313 314 314 315 315 316 316 318 319 320 320 319 320 326 332 334 335 334 331 331 333 334 335 336 336 335 335 336 337 338 340 342 343 344 345 346 346 346 346 346 346 346 347 347 347 347 347 348 347 347 347 346 345 345 345 345 346 346 347 346 346
Wind_Speed
17 20 19 18 14 9 9 12 13 12 11 10 8 6 5 5 7 7 8 10 8 6 7 8 9 9 11 12 13 13 13 14 14 13 13 15 15 16 17 18 19 20 20 21 24 27 28 29 31 33 34 34 34 32 31 33 32 32 33 34 34 32 31
19 19 20 20 18 12 8 11 13 11 11 11 8 7 6 7 9 7 9 13 11 8 7 8 14 16 15 15 15 14 13 13 14 14 14 15 16 16 18 19 18 19 19 21 24 28 30 31 32 34 36 35 34 33 32 33 33 34 34 35 34 33 32
18 17 17 16 19 19 12 9 11 11 10 10 8 7 8 9 9 8 11 14 11 9 7 5 10 15 16 16 16 15 16 15 14 14 15 16 16 15 16 17 16 17 19 21 24 29 32 33 34 34 35 34 33 33 33 33 35 35 34 33 33 34 33
16 15 14 12 15 18 15 10 11 11 8 8 9 8 7 8 8 7 10 11 9 8 10 9 9 9 10 13 13 14 16 16 15 15 15 15 15 14 14 15 16 18 20 22 26 30 31 32 32 31 32 33 33 34 33 33 33 33 33 32 32 33 34
16 12 12 14 14 15 14 12 12 12 9 6 7 9 8 8 8 7 7 8 5 2 5 11 12 10 9 10 10 11 13 15 15 15 15 14 14 14 15 15 17 19 19 21 26 28 28 28 28 28 29 31 32 32 33 34 33 33 34 34 33 34 34
12 11 13 16 17 16 15 12 12 12 11 8 8 9 10 9 8 7 7 7 3 3 3 5 8 9 10 11 12 11 11 12 13 13 13 13 13 14 15 15 15 16 16 18 21 24 25 26 28 29 30 30 31 32 33 34 34 34 35 35 35 34 34
9 12 15 17 19 19 17 14 13 13 12 11 9 8 8 9 10 9 8 8 3 4 4 2 3 6 8 9 11 11 10 10 10 10 11 10 9 9 10 12 12 12 13 14 17 21 24 26 28 30 30 30 32 33 33 32 34 35 35 35 35 35 33
7 9 12 16 18 18 17 15 15 14 14 13 11 8 7 7 10 9 8 9 5 4 4 3 4 7 8 7 9 10 10 8 7 7 6 6 6 7 8 9 9 10 11 13 15 17 20 23 26 28 29 30 31 33 33 33 35 36 36 35 34 34 34
8 8 10 13 17 16 12 13 17 17 18 18 14 11 9 7 10 12 9 8 4 5 5 5 4 6 7 5 5 7 7 7 5 3 2 4 6 7 9 10 10 12 12 12 13 13 15 21 25 26 28 29 30 31 33 34 34 35 35 34 34 34 34
11 11 9 8 11 13 11 12 18 20 21 21 16 11 10 9 10 12 11 7 3 5 5 6 6 6 6 5 5 4 5 5 4 2 2 3 4 6 8 9 10 11 11 11 13 12 14 20 24 25 26 28 29 30 32 33 32 33 34 34 33 33 33
5 3 1 3 2 10 16 17 19 19 20 22 16 11 10 9 9 11 11 10 7 5 7 7 7 7 5 4 4 3 3 2 2 1 3 3 4 5 7 8 8 10 10 12 14 13 15 20 23 24 25 27 27 28 30 31 30 31 32 33 33 33 33
2 3 4 6 3 6 13 16 19 18 18 21 20 15 12 10 9 10 10 12 13 8 6 7 7 6 4 3 4 2 1 4 5 2 1 4 6 6 7 8 9 10 11 12 13 13 15 19 22 24 25 26 27 27 29 30 30 30 31 33 34 34 32
3 3 3 2 1 2 4 8 12 15 16 19 19 18 16 14 11 9 8 12 14 12 10 8 6 5 5 5 6 6 5 7 7 5 4 5 5 7 8 9 9 10 10 10 11 12 13 17 21 24 25 26 27 27 28 29 31 31 31 32 33 33 32
4 4 3 2 2 3 5 7 9 10 13 15 15 16 17 18 16 14 12 13 13 12 13 13 11 10 9 9 10 12 13 14 12 10 9 8 6 4 5 8 9 9 9 10 11 12 12 15 19 22 23 25 27 28 27 28 30 31 30 31 32 32 32
5 5 5 4 4 5 7 10 11 12 13 13 13 13 14 15 15 16 16 15 13 10 10 12 13 12 11 11 12 13 15 16 17 16 13 11 10 10 7 3 7 7 8 10 10 12 13 15 18 21 23 24 27 28 27 28 30 31 30 29 30 31 31
5 5 6 7 6 7 11 13 14 15 15 14 13 12 13 13 13 15 15 13 10 8 9 10 11 11 11 12 13 13 13 15 17 17 16 15 13 13 13 8 4 6 8 10 11 13 14 16 20 22 23 23 25 27 29 28 28 29 29 29 29 30 29
4 5 4 5 5 8 12 13 15 17 16 15 14 14 14 14 13 13 12 10 8 8 10 10 9 11 13 13 12 12 12 13 15 16 17 17 16 16 16 12 6 5 6 7 9 11 11 14 20 22 23 24 25 27 27 25 25 27 29 28 27 27 27
4 3 1 3 7 9 6 4 9 15 17 18 17 16 16 17 15 13 11 10 9 9 9 10 10 11 12 12 12 12 12 12 13 15 16 16 16 16 15 12 8 6 5 5 6 8 10 13 17 19 23 26 25 24 25 25 26 28 29 28 26 25 26
5 3 2 6 9 6 1 4 3 4 9 13 14 14 15 15 15 16 16 15 13 11 9 9 9 10 11 13 13 13 13 11 11 13 14 14 15 15 13 11 9 6 5 6 6 7 9 12 14 17 21 23 22 22 25 27 28 29 29 27 25 25 26
5 5 6 9 4 2 1 2 3 3 4 6 8 12 15 16 15 14 14 14 15 15 14 13 13 13 14 13 12 12 13 13 12 14 15 14 14 12 9 7 6 5 6 7 8 7 8 10 12 15 17 19 21 22 25 26 26 27 26 25 24 24 26
6 6 7 7 4 4 5 5 3 3 3 3 2 7 9 8 6 4 4 7 10 11 12 12 11 11 11 11 10 12 14 14 14 15 14 11 9 7 6 5 5 6 7 9 10 9 8 9 11 12 14 18 20 21 23 24 24 25 25 24 25 25 25
6 7 7 8 8 8 7 6 5 5 3 3 2 4 3 5 6 4 3 4 7 8 8 8 7 6 7 9 9 11 15 14 14 12 9 6 5 4 4 5 5 6 7 9 10 9 9 9 9 10 12 16 19 19 20 22 22 22 24 25 25 24 23
7 8 8 8 8 4 2 5 7 6 3 2 2 5 5 5 9 5 3 3 6 6 6 6 5 4 7 8 7 8 11 10 9 8 6 4 3 2 2 3 4 5 6 7 7 6 7 6 7 9 11 14 17 17 17 19 20 22 24 24 23 23 22
8 9 8 7 6 4 2 4 6 6 3 1 4 7 4 5 7 6 3 4 6 7 7 6 5 5 7 6 5 8 7 2 2 1 1 1 0 1 1 3 4 4 4 3 2 2 2 2 4 7 11 14 15 15 16 17 19 21 22 22 22 22 22
9 10 9 7 5 5 4 4 4 4 2 3 6 5 2 3 3 3 2 5 6 6 7 6 4 5 6 7 8 9 7 3 2 3 2 2 2 3 3 4 4 3 1 0 1 3 2 1 3 6 10 12 12 13 14 15 16 17 17 18 19 20 21
9 9 9 8 7 3 4 8 7 3 4 4 2 1 2 1 3 2 1 3 4 4 7 7 6 8 11 12 11 9 6 3 2 3 2 2 2 3 4 4 3 2 2 3 4 4 4 3 3 6 9 9 10 10 11 11 12 13 12 14 16 17 18
8 8 9 9 7 1 3 5 7 7 6 4 3 2 1 1 4 4 2 2 2 3 7 8 9 11 12 12 10 7 5 3 2 3 3 3 3 3 3 3 3 3 3 4 5 6 7 6 4 6 9 9 9 9 8 6 7 8 9 11 13 14 16
6 9 9 4 2 4 8 7 3 4 6 7 7 6 4 2 4 4 3 3 3 4 7 9 10 11 11 10 8 8 7 3 0 1 1 1 1 1 2 3 3 3 3 4 6 7 8 9 8 8 9 9 10 10 8 6 5 6 7 8 10 12 13
4 7 6 6 9 9 8 7 6 9 10 9 7 8 7 4 3 3 4 4 4 4 7 9 10 10 10 9 8 9 8 5 2 1 1 1 1 1 2 3 3 4 4 5 7 8 9 10 11 11 11 11 12 10 7 5 5 5 5 7 9 10 11
7 9 10 11 12 12 10 9 9 11 12 9 8 8 7 5 4 4 4 4 5 5 6 7 8 8 8 8 8 8 6 5 3 2 2 2 2 2 3 4 4 4 5 6 7 9 10 10 11 12 12 12 12 9 7 6 5 4 5 6 6 7 8
7 7 8 10 12 14 13 11 10 11 12 11 9 8 7 6 6 5 4 4 4 4 3 4 5 6 6 6 6 4 3 3 4 3 3 3 2 2 3 4 3 4 5 5 6 8 10 11 12 12 12 12 11 9 7 7 6 6 6 6 6 6 6
9 9 10 13 15 16 16 14 10 9 10 11 10 9 8 7 7 5 4 3 3 2 1 1 2 3 4 5 4 3 3 3 2 2 3 3 2 2 3 4 4 4 5 5 6 8 9 10 11 11 12 11 10 9 8 7 7 7 7 7 7 6 5
10 12 13 13 14 15 16 16 12 8 8 11 12 11 10 9 8 5 4 2 1 1 2 1 2 2 2 3 3 4 4 2 2 2 3 4 3 4 5 5 5 6 6 6 7 8 9 9 10 11 11 10 9 8 8 7 8 9 9 8 8 8 7
10 10 9 9 9 9 11 10 8 8 9 11 14 14 12 10 8 5 3 2 1 3 3 3 3 3 4 4 2 2 2 2 2 3 4 5 5 6 7 8 9 9 8 8 9 9 9 10 10 11 11 11 10 9 8 7 8 9 9 9 9 8 7
11 11 10 9 8 10 11 10 11 11 9 9 12 15 15 13 10 6 3 2 3 4 4 4 4 4 3 3 2 4 5 4 4 4 5 7 7 8 10 11 11 12 12 11 12 12 11 11 12 13 13 12 12 11 10 10 9 9 10 10 9 8 8
15 15 15 13 12 14 15 14 13 12 10 9 11 14 17 17 12 7 5 4 4 4 4 5 5 5 5 5 6 6 6 7 7 7 8 9 10 11 12 13 13 14 14 13 13 14 13 13 14 15 15 14 13 13 12 12 11 11 10 10 10 10 10
15 14 14 14 16 17 15 13 13 13 12 11 11 13 17 17 11 7 7 7 6 5 4 5 5 6 7 7 6 6 8 9 9 9 9 11 11 11 13 14 14 15 15 14 14 15 14 14 14 15 16 15 14 13 13 13 13 13 13 12 12 11 11
Wind_Direction
193 191 196 197 196 193 188 197 212 212 208 221 236 247 259 267 252 219 204 226 239 254 253 224 214 212 205 210 215 214 214 212 209 205 199 200 203 202 201 201 202 199 196 194 193 193 192 190 190 190 191 191 191 191 190 191 192 192 193 194 197 199 202
193 191 193 196 202 204 191 195 203 199 205 224 237 237 225 226 240 231 221 231 230 234 248 222 213 217 215 215 218 217 215 208 206 205 201 203 204 203 203 202 201 197 196 196 195 195 194 193 192 191 191 190 191 191 190 190 191 192 193 194 196 197 199
185 184 194 198 202 209 216 208 192 190 203 209 209 226 226 220 234 237 229 235 235 228 232 214 209 216 217 216 216 218 217 210 207 204 202 205 207 205 204 202 200 197 197 198 197 197 196 194 193 192 191 189 190 192 192 192 193 193 193 194 195 197 199
180 179 199 202 194 202 216 219 201 199 208 206 201 212 225 227 236 241 232 232 233 230 230 228 221 212 211 213 211 216 219 214 210 207 203 204 205 206 205 202 200 199 199 199 199 200 199 196 195 193 191 191 191 192 192 193 194 193 193 194 195 196 199
184 185 200 202 191 191 201 208 205 200 198 207 212 211 217 232 239 241 242 239 231 204 221 226 224 214 211 216 213 214 219 219 215 211 207 202 199 202 203 202 202 200 200 201 201 201 201 198 196 194 193 194 194 193 193 194 194 193 194 196 195 197 199
193 198 195 200 201 193 193 201 201 197 195 201 208 207 210 224 239 242 248 255 247 94 130 203 210 217 223 228 225 217 216 221 221 216 211 202 199 202 202 203 203 201 200 202 202 201 200 199 197 196 195 195 195 196 196 196 195 195 196 196 196 197 199
203 205 189 197 207 199 197 205 202 198 201 204 207 205 200 211 231 241 249 260 265 100 124 183 210 231 238 232 227 224 220 217 217 220 215 201 198 203 204 205 205 202 199 200 202 200 199 200 200 197 196 195 195 197 197 196 197 198 197 196 196 197 198
206 205 186 196 211 206 204 209 206 205 207 206 213 220 213 213 222 224 232 245 237 133 156 223 237 233 235 227 218 222 227 223 217 221 205 181 184 191 197 201 200 200 199 197 201 201 198 200 200 199 199 198 197 197 196 197 199 199 198 197 196 195 197
188 193 188 196 209 211 214 211 206 210 211 208 213 223 229 231 224 219 225 238 220 130 162 208 208 211 223 223 213 214 222 232 240 238 158 161 184 191 196 197 193 197 198 195 198 200 197 198 200 200 200 200 200 198 197 198 199 198 196 196 196 196 198
199 195 189 196 206 204 211 215 208 209 210 208 211 218 221 224 223 223 228 235 194 126 164 207 202 203 215 215 211 207 212 228 237 224 166 175 193 196 195 194 193 196 198 197 197 197 196 198 199 200 201 202 202 201 200 200 198 196 195 195 196 196 199
225 209 104 9 283 202 199 208 211 209 209 209 211 218 219 215 221 229 231 234 224 171 170 192 188 184 193 207 221 217 215 262 273 196 184 193 192 187 187 189 193 196 199 200 199 197 197 198 199 200 201 202 203 203 202 202 199 195 194 194 195 196 199
330 347 7 10 348 209 199 204 208 209 211 211 214 220 221 213 221 231 221 220 230 220 183 177 178 182 197 232 254 249 360 335 325 331 216 210 192 176 179 187 192 199 205 207 206 203 201 202 202 203 204 204 203 203 203 201 199 197 195 194 195 196 197
287 302 314 345 339 239 218 211 207 208 213 216 220 225 225 222 228 239 222 215 226 230 222 216 213 219 234 252 274 296 315 310 307 323 317 276 219 177 178 187 193 202 207 209 212 210 206 206 206 206 207 206 204 204 202 200 200 199 196 194 195 195 196
264 246 254 274 262 237 234 232 223 218 221 225 228 232 233 234 237 241 240 237 235 233 237 243 245 248 256 266 278 288 293 295 298 304 300 284 264 235 197 183 186 202 209 209 212 211 206 207 208 207 207 206 204 204 202 200 200 199 197 195 195 195 197
236 226 228 228 236 242 242 241 236 231 230 229 230 232 235 240 243 244 244 247 246 239 242 254 257 255 258 262 266 274 283 289 290 288 281 272 273 288 291 214 174 186 203 206 209 210 208 208 207 207 207 206 205 205 203 201 200 198 197 197 196 196 199
216 196 206 222 240 257 252 241 234 230 228 227 227 226 228 232 237 243 245 246 246 243 244 253 255 253 256 261 264 268 273 276 277 277 276 275 278 289 295 285 209 185 201 203 205 211 213 210 208 208 206 204 204 205 204 202 199 196 197 198 197 197 197
209 165 193 236 251 254 249 237 227 225 225 226 227 226 227 228 231 238 242 242 246 246 244 245 245 247 254 259 262 264 266 268 270 270 270 273 277 282 285 282 260 231 229 217 212 215 216 216 214 210 206 205 206 206 204 200 197 196 197 198 198 197 195
224 169 183 259 239 234 239 221 215 221 223 224 226 227 226 223 225 237 246 251 253 249 243 243 247 252 257 261 261 261 261 262 264 265 267 271 276 278 280 280 273 263 256 246 238 232 227 226 223 215 210 210 208 203 197 195 194 196 197 197 197 196 195
251 255 238 230 227 220 121 84 128 213 229 230 234 239 237 231 229 235 243 248 250 251 253 256 265 269 269 268 265 262 264 267 269 269 270 272 273 274 274 272 269 264 259 259 257 246 239 235 227 218 214 212 207 199 192 191 192 194 195 194 195 195 195
251 253 226 219 222 33 60 172 137 144 189 206 229 240 238 238 240 241 246 250 249 251 253 254 261 267 266 266 265 262 264 264 261 265 267 268 271 273 274 274 273 273 274 273 270 261 252 243 230 221 214 208 203 198 192 189 190 192 192 193 194 196 195
238 240 235 237 274 303 244 206 127 106 142 131 245 246 228 218 238 272 286 273 265 265 263 261 267 273 269 264 263 262 261 254 248 254 261 265 270 274 282 293 290 283 279 275 271 266 257 246 234 223 212 204 201 198 193 191 190 190 193 196 197 198 198
232 241 246 242 251 259 232 189 125 93 76 61 22 270 220 120 76 28 337 290 286 286 287 290 302 304 273 261 262 263 259 247 237 238 241 244 257 269 284 293 289 285 282 275 268 259 250 246 234 219 209 202 199 196 193 191 188 189 196 201 201 201 200
228 234 239 233 237 247 160 142 127 112 99 101 149 240 229 111 69 32 332 308 305 303 310 311 305 282 253 250 265 280 269 243 222 222 217 210 237 267 295 303 303 304 299 283 265 242 230 231 220 208 204 199 195 192 189 188 189 193 200 203 202 202 201
226 232 239 238 241 244 149 131 120 100 73 157 212 228 208 92 54 21 345 320 312 314 321 311 274 247 246 259 317 336 330 332 132 156 187 152 8 343 352 338 323 316 305 282 249 191 188 209 204 198 196 194 194 191 187 190 196 200 202 201 199 200 201
225 230 238 241 245 252 245 208 152 91 29 244 229 227 130 72 13 359 338 312 315 316 309 299 274 262 275 296 319 332 335 349 61 54 49 64 32 8 11 358 332 314 316 360 73 72 70 122 192 192 191 192 193 189 187 192 201 204 202 199 197 198 199
222 222 233 244 240 237 255 243 227 244 271 243 210 155 113 77 333 353 283 286 312 314 297 291 289 288 290 294 298 308 321 335 31 44 36 51 48 34 26 4 330 321 21 48 56 59 62 83 153 177 179 180 181 182 183 189 197 199 197 195 195 195 197
223 225 226 231 224 180 346 280 233 227 255 289 2 348 243 351 349 342 314 298 321 309 294 291 292 293 291 288 289 297 307 324 35 31 10 23 33 25 23 16 10 19 31 40 48 54 57 63 96 148 159 158 156 156 156 157 168 178 183 187 190 192 196
217 220 212 217 306 352 353 333 276 260 300 330 345 325 304 343 352 334 326 331 333 310 296 292 295 295 291 286 285 285 281 277 71 44 352 348 349 26 31 24 31 45 53 53 54 57 58 59 69 101 124 125 118 119 116 100 105 141 168 181 187 192 197
269 256 261 317 321 311 319 326 321 319 319 323 330 319 307 313 335 330 318 318 327 316 298 293 293 290 289 288 282 271 261 249 215 190 210 236 222 142 96 66 56 60 65 68 71 73 71 66 66 76 91 96 93 92 93 89 96 127 155 173 185 193 197
299 286 277 283 285 287 304 323 326 322 316 314 317 315 307 308 315 311 308 312 314 306 295 295 295 289 286 283 274 265 256 238 209 186 184 195 190 145 108 95 90 84 78 76 77 79 80 77 75 76 80 86 90 93 98 102 110 128 145 159 172 184 192
282 275 273 280 284 293 305 312 314 316 313 310 311 309 306 304 296 295 308 308 294 284 284 299 304 298 284 269 257 258 262 236 204 184 178 175 156 123 108 105 106 100 91 85 79 79 78 76 78 82 84 85 90 94 95 98 108 122 135 146 152 162 177
254 259 274 287 290 293 295 294 295 303 301 300 303 303 300 293 283 285 299 291 273 262 242 292 332 314 281 263 245 231 234 226 207 187 170 154 136 110 100 101 103 95 89 89 84 80 78 75 76 82 84 84 87 90 90 96 110 119 122 124 125 127 135
260 260 268 276 278 276 272 270 274 287 300 307 306 294 280 273 266 263 270 271 276 112 159 134 49 26 323 294 254 219 208 192 183 181 156 133 117 103 96 96 98 95 92 92 89 84 80 79 80 82 82 82 84 88 92 101 115 121 120 117 114 109 100
258 256 258 264 269 269 264 266 291 319 334 332 317 298 284 271 256 243 241 227 130 105 124 130 101 70 17 335 285 178 138 120 140 149 138 123 110 106 107 108 106 104 103 100 96 92 89 86 85 83 80 78 77 78 84 94 107 115 117 116 115 112 104
261 265 266 265 272 280 279 285 302 312 323 327 313 305 301 287 262 235 213 177 128 106 105 115 117 104 64 22 55 93 86 75 76 81 99 111 111 108 108 107 106 105 106 104 100 98 96 93 90 85 81 78 76 75 78 87 97 106 111 109 105 100 96
267 270 273 272 270 272 276 284 293 297 301 304 300 299 299 289 266 224 177 140 110 105 117 118 112 104 88 72 70 76 77 77 76 74 79 89 96 100 101 103 103 102 102 102 101 99 96 92 88 86 84 82 82 82 83 88 92 96 100 101 99 97 97
264 268 271 271 267 267 273 281 283 280 281 285 283 282 283 278 260 210 164 134 108 96 106 107 98 93 90 84 81 83 84 83 89 98 97 91 91 94 95 97 100 101 100 100 98 97 96 91 87 86 86 84 85 86 87 89 91 92 92 95 97 97 99